Zurück zum Katalog

FENGYUN 1C DEB

AktivLEO
NORAD 31648·DEBRIS·🇨🇳 China

Gestartet May 10, 1999 von Taiyuan Satellite Launch Center

Loading…

Nächste Überflüge (nächste 24 Stunden)

TLE

AlterndSource: Space-Track

Epoche: Sep 9, 2026, 01:06 UTC

1 31648U 99025CBE 26252.04614210  .00004957  00000-0  24261-2 0  9994
2 31648 102.7876 197.0812 0040468 227.1624 132.6132 14.18229371757262

Verfolge FENGYUN 1C DEB in Echtzeit mit AllMySat

Download on the App Store